This demonstration page uses our WeatherBlox Daily Observations layout. Learn more.

Left ArrowRight Arrow

39.08367, -84.50855

Hourly Observations for April 14, 2019

Temp ( °F °C ) Dew Point ( °F °C ) Humidity (%) Winds ( mph kmh ) Pressure ( in mb ) Visibility ( mi km ) Precip ( " mm )
12:53 am 00:53 Partly Cloudy 56 13.3 44 6.7 65 65 NE 10 17 29.89 1012 10 16.0934 0.01 0.254
1:53 am 01:53 Mostly Cloudy 57 13.9 41 5 55 55 NE 9 15 29.85 1011 10 16.0934 0 0
2:53 am 02:53 Cloudy with Light Rain 53 11.7 44 6.7 72 72 NNE 9 15 29.84 1011 10 16.0934 0.02 0.508
3:53 am 03:53 Cloudy with Rain 50 10 45 7.2 83 83 ENE 9 15 29.82 1010 5 8.0467 0.12 3.048
4:53 am 04:53 Cloudy with Heavy Rain 48 8.9 45 7.2 89 89 E 14 22 29.76 1008 3 4.82802 0.2 5.08
5:53 am 05:53 Cloudy with Light Rain 49 9.4 46 7.8 90 90 ENE 8 13 29.7 1006 7 11.26538 0.11 2.794
6:19 am 06:19 Cloudy with Light Rain 50 10 46 7.8 86 86 ENE 8 13 29.72 1006 10 16.0934 0.01 0.254
6:53 am 06:53 Cloudy with Rain 49 9.4 47 8.3 93 93 ENE 8 13 29.69 1005 4 6.43736 0.08 2.032
7:04 am 07:04 Cloudy with Light Rain 49 9.4 47 8.3 93 93 ENE 10 17 29.69 1005 8 12.87472 0 0.0254
7:49 am 07:49 Cloudy with Rain 48 9 46 8 94 94 ENE 8 13 29.68 1005 5 8.0467 0.07 1.778
7:53 am 07:53 Cloudy with Rain 49 9.4 47 8.3 93 93 NE 9 15 29.66 1005 5 8.0467 0.08 2.032
8:53 am 08:53 Cloudy 51 10.6 49 9.4 92 92 ENE 5 7 29.6 1002 10 16.0934 0.03 0.762
9:53 am 09:53 Mostly Cloudy 53 11.7 50 10 89 89 NE 9 15 29.52 1000 10 16.0934 0 0
10:14 am 10:14 Cloudy 54 12.2 51 10.6 90 90 NE 8 13 29.52 1000 10 16.0934 0 0
10:53 am 10:53 Cloudy 57 13.9 54 12.2 90 90 NE 7 11 29.48 998 10 16.0934 0 0
11:23 am 11:23 Mostly Cloudy 60 15.6 56 13.3 86 86 VRB 5 7 29.47 998 10 16.0934 0 0
11:43 am 11:43 Partly Cloudy 66 18.9 59 15 78 78 SSE 14 22 29.43 997 10 16.0934 0 0
11:53 am 11:53 Mostly Sunny 66 18.9 60 15.6 81 81 SSE 8 13 29.42 996 10 16.0934 0 0
12:53 pm 12:53 Mostly Cloudy 72 22.2 62 16.7 71 71 SSE 8 13 29.37 995 10 16.0934 0 0
1:53 pm 13:53 Partly Cloudy 77 25 58 14.4 52 52 S 23 37 29.31 993 10 16.0934 0 0
2:53 pm 14:53 Mostly Cloudy 77 25 54 12.2 45 45 SSW 24 39 29.28 992 10 16.0934 0 0
3:53 pm 15:53 Partly Cloudy 78 25.6 53 11.7 42 42 SW 28 44 29.29 992 10 16.0934 0 0
4:53 pm 16:53 Mostly Cloudy with Light Rain 66 18.9 57 13.9 73 73 W 25 41 29.33 993 2.5 4.02335 0.05 1.27
5:00 pm 17:00 Mostly Cloudy with Light Rain 66 18.9 59 15 78 78 W 20 31 29.32 993 5 8.0467 0 0
5:53 pm 17:53 Cloudy with Light Rain 63 17.2 54 12.2 73 73 WSW 25 41 29.36 994 7 11.26538 0 0
6:53 pm 18:53 Mostly Cloudy 60 15.6 51 10.6 72 72 WSW 21 33 29.42 996 10 16.0934 0 0.0254
7:53 pm 19:53 Cloudy 57 13.9 48 8.9 72 72 WSW 21 33 29.47 998 10 16.0934 0 0
8:53 pm 20:53 Cloudy 50 10 42 5.6 74 74 WSW 30 48 29.55 1001 10 16.0934 0 0
9:53 pm 21:53 Cloudy 46 7.8 40 4.4 79 79 WSW 21 33 29.61 1003 10 16.0934 0 0
10:53 pm 22:53 Cloudy with Light Rain 44 6.7 38 3.3 79 79 W 18 30 29.66 1004 8 12.87472 0 0.0254
11:53 pm 23:53 Cloudy with Light Rain 41 5 34 1.1 76 76 W 17 28 29.7 1006 10 16.0934 0.01 0.254

Powered by AerisWeather